[[[{"header":{"parameterUnit":"kt","parameterCategory":2,"dx":1,"dy":1,"la1":30.253999710083008,"la2":30.299108505249023,"lo1":-89.0895004272461,"lo2":-89.04439544677734,"nx":28,"ny":28,"refTime":"2022-10-01T21:00:00:Z","depth":0,"parameterNumber":1,"parameterNumberName":"U-component_of_WINDS"},"data":[0.7768,0.7684,0.7672,0.757,0.7541,0.7468,0.7437,0.7396,0.7359,0.7269,0.7214,0.719,0.7144,0.7073,0.701,0.7,0.6972,0.6954,0.6944,0.7042,0.7055,0.7066,0.7084,0.695,0.695,0.6841,0.684,0.6839,0.7844,0.7816,0.7759,0.7694,0.7644,0.7655,0.7603,0.756,0.7493,0.7447,0.7392,0.7309,0.7242,0.7201,0.7132,0.7089,0.7087,0.7071,0.707,0.7062,0.7169,0.7188,0.7074,0.7074,0.7074,0.7074,0.7074,0.7074,0.798,0.7931,0.7884,0.7821,0.7785,0.7741,0.769,0.7662,0.7604,0.7532,0.7526,0.7448,0.7396,0.7304,0.7269,0.7206,0.7219,0.7195,0.7188,0.718,0.7174,0.7327,0.7194,0.7194,0.7195,0.7195,0.7195,0,0.8073,0.8065,0.8009,0.7949,0.7902,0.7853,0.7805,0.7773,0.7747,0.77,0.7629,0.7584,0.7496,0.7425,0.7356,0.7322,0.732,0.732,0.7302,0.7301,0.731,0.7299,0.747,0.7322,0.7323,0.7324,0.7324,0.7324,0.8203,0.8149,0.8092,0.8054,0.8024,0.7963,0.7923,0.7904,0.7861,0.7798,0.7753,0.7684,0.7625,0.7511,0.7472,0.7405,0.7401,0.7347,0.739,0.7395,0.7394,0.7395,0.7387,0.7335,0.7334,0.7333,0.7332,0,0.8277,0.8254,0.8164,0.8112,0.8097,0.8039,0.7992,0.7941,0.7918,0.7843,0.7824,0.7785,0.7714,0.7684,0.7595,0.7581,0.748,0.7482,0.7498,0.7495,0.7439,0.7442,0.7271,0.7246,0.7391,0.739,0.7389,0,0.8376,0.8304,0.8273,0.8221,0.814,0.8123,0.8042,0.8014,0.7969,0.7909,0.7907,0.785,0.7821,0.776,0.7739,0.7652,0.7637,0.7618,0.7612,0.7615,0.7616,0.7584,0.7588,0.7607,0.7608,0.7609,0.7609,0,0.8489,0.8389,0.8306,0.8278,0.8213,0.8174,0.8144,0.8093,0.8052,0.7995,0.7967,0.7902,0.7864,0.7812,0.7785,0.7815,0.7679,0.7715,0.7659,0.7659,0.7624,0.7625,0.7488,0.7611,0.7611,0.7611,0.7611,0,0.8562,0.8509,0.8393,0.8338,0.8311,0.8256,0.8191,0.8137,0.8082,0.8066,0.802,0.8011,0.7936,0.7974,0.7867,0.7914,0.7877,0.7854,0.7849,0.7834,0.7875,0.7794,0.7672,0.7655,0.7829,0.7831,0.7833,0,0.8697,0.8574,0.8557,0.8447,0.8385,0.8385,0.8323,0.8275,0.8248,0.819,0.8159,0.8092,0.8114,0.8087,0.804,0.8003,0.7942,0.8011,0.7919,0.7916,0.7929,0.7818,0.7804,0.7704,0.7856,0.7853,0.7852,0,0.8796,0.8718,0.8699,0.8665,0.86,0.8548,0.8478,0.8408,0.837,0.8317,0.8254,0.816,0.8171,0.8128,0.8112,0.8064,0.7983,0.8081,0.8079,0.806,0.7866,0.7853,0.7837,0.7983,0.798,0.7978,0.787,0,0.8904,0.8839,0.879,0.8716,0.8672,0.8601,0.857,0.8527,0.8518,0.849,0.8399,0.8348,0.8272,0.8247,0.8236,0.8136,0.8146,0.8158,0.8186,0.8116,0.8078,0.8064,0.8245,0.8245,0.8246,0.8246,0,0,0.9035,0.8941,0.8923,0.8854,0.8814,0.8813,0.8739,0.8701,0.862,0.8592,0.861,0.8467,0.8424,0.8315,0.829,0.8261,0.8238,0.8263,0.8151,0.814,0.813,0.8092,0.8077,0.8247,0.8247,0.8248,0.8248,0,0.9066,0.9029,0.8959,0.8919,0.8858,0.8832,0.8816,0.8753,0.8731,0.8643,0.8637,0.8578,0.8464,0.8418,0.8379,0.8278,0.8273,0.8259,0.8214,0.8158,0.8147,0.8137,0.8096,0.8083,0.8249,0.8249,0.8249,0,0.9154,0.9111,0.9074,0.8987,0.8946,0.8882,0.8907,0.8838,0.8789,0.8783,0.8694,0.866,0.8595,0.8499,0.8453,0.8466,0.8308,0.8352,0.8348,0.8339,0.8283,0.827,0.8258,0.8413,0.8414,0.8415,0,0,0.9185,0.9125,0.9069,0.8991,0.8966,0.8926,0.8888,0.8873,0.8818,0.8795,0.875,0.8694,0.8627,0.8583,0.8519,0.8418,0.8399,0.8374,0.8366,0.836,0.8349,0.829,0.8277,0.8417,0.8417,0.8417,0,0,0.9198,0.9131,0.9132,0.9038,0.8987,0.8923,0.8875,0.8873,0.8812,0.8815,0.8784,0.8767,0.8676,0.8641,0.8683,0.8527,0.8557,0.8546,0.8552,0.8541,0.8534,0.8541,0.8695,0,0,0,0,0,0.9212,0.914,0.9142,0.9121,0.9008,0.8924,0.8909,0.8883,0.8905,0.8868,0.883,0.8829,0.8657,0.8693,0.8671,0.8623,0.8452,0.8446,0.844,0.8424,0.8413,0.8404,0,0,0,0,0,0,0.9204,0.9179,0.9144,0.9078,0.9052,0.8926,0.8958,0.8949,0.8909,0.891,0.8837,0.8827,0.8801,0.8702,0.8683,0.8638,0.8701,0.845,0.8445,0.844,0.842,0.8412,0.8404,0,0,0,0,0,0.9197,0.9177,0.9002,0.9078,0.9056,0.9005,0.896,0.8953,0.8921,0.8861,0.8851,0.8905,0.88,0.8782,0.8691,0.8647,0.8715,0.8708,0.8447,0.8442,0.8439,0.8416,0,0,0,0,0,0,0.9192,0.9168,0.8997,0.8989,0.9104,0.9012,0.8997,0.8957,0.8874,0.8864,0.8928,0.893,0.8799,0.8785,0.8771,0.8652,0.8725,0.8718,0.8714,0.8443,0.844,0.8437,0,0,0,0,0,0,0.9179,0.9162,0.8993,0.9026,0.9022,0.9018,0.9004,0.8922,0.8873,0.8946,0.8945,0.893,0.8819,0.8787,0.8776,0.8649,0.8734,0.8727,0.8722,0.8719,0.8441,0.8438,0,0,0,0,0,0,0.9171,0.9156,0.9028,0.9025,0.9021,0.893,0.8944,0.8828,0.8906,0.8949,0.8911,0.8914,0.882,0.8809,0.8779,0.8657,0.8651,0.8734,0.8729,0.8725,0.8723,0,0,0,0,0,0,0,0.9165,0.9271,0.9045,0.9023,0.902,0.8916,0.8914,0.8912,0.8906,0.8909,0.8911,0.8913,0.8773,0.8766,0.8758,0.8663,0,0,0.8734,0.8731,0,0,0,0,0,0,0,0,0.9277,0.9273,0.9044,0.9043,0.9041,0.8916,0.8914,0.8912,0.8907,0.8908,0.891,0.8912,0.8771,0.8765,0.8759,0,0,0,0,0,0,0,0,0,0,0,0,0,0,0,0.9044,0.9043,0,0.8916,0.8914,0.8913,0.8907,0.8908,0.891,0.8911,0.877,0.8765,0.8759,0,0,0,0,0,0,0,0,0,0,0,0,0,0,0,0,0,0,0,0,0,0,0,0,0,0,0,0,0,0,0,0,0,0,0,0,0,0,0,0,0,0,0,0,0,0,0,0,0,0,0,0,0,0,0,0,0,0,0,0,0,0,0,0,0,0,0,0,0]}],[{"header":{"parameterUnit":"kt","parameterCategory":2,"dx":1,"dy":1,"la1":30.253999710083008,"la2":30.299108505249023,"lo1":-89.0895004272461,"lo2":-89.04439544677734,"nx":28,"ny":28,"refTime":"2022-10-01T21:00:00:Z","depth":0,"parameterNumber":2,"parameterNumberName":"V-component_of_WINDS"},"data":[-9.4109,-9.4349,-9.4355,-9.4629,-9.468,-9.4868,-9.4937,-9.5026,-9.5097,-9.5319,-9.5448,-9.5475,-9.5545,-9.5698,-9.5835,-9.5843,-9.5902,-9.5984,-9.598,-9.561,-9.5559,-9.551,-9.5455,-9.5996,-9.5997,-9.6362,-9.6366,-9.6368,-9.3841,-9.3895,-9.4042,-9.4188,-9.4313,-9.4238,-9.4346,-9.4455,-9.4624,-9.4713,-9.4839,-9.5034,-9.5187,-9.523,-9.5377,-9.5487,-9.5459,-9.5527,-9.5519,-9.5532,-9.5136,-9.5078,-9.5547,-9.5547,-9.5547,-9.5547,-9.5547,-9.5547,-9.3354,-9.3497,-9.3588,-9.3747,-9.3821,-9.3918,-9.4054,-9.4085,-9.4226,-9.4382,-9.4357,-9.4547,-9.4635,-9.4812,-9.4871,-9.5018,-9.4943,-9.5017,-9.5037,-9.5056,-9.5079,-9.4555,-9.5042,-9.5041,-9.504,-9.5039,-9.5038,0,-9.2999,-9.2994,-9.3134,-9.3277,-9.3393,-9.3502,-9.3603,-9.3687,-9.3672,-9.379,-9.3959,-9.4057,-9.4248,-9.4406,-9.4543,-9.4589,-9.452,-9.4512,-9.4564,-9.4581,-9.4579,-9.4585,-9.3943,-9.4498,-9.4493,-9.449,-9.4488,-9.4486,-9.251,-9.2675,-9.2771,-9.2869,-9.2925,-9.3083,-9.3177,-9.3151,-9.3252,-9.337,-9.3496,-9.3654,-9.3779,-9.4047,-9.4076,-9.4218,-9.4186,-9.4398,-9.4207,-9.4216,-9.4192,-9.4183,-9.42,-9.4437,-9.4443,-9.4448,-9.4452,0,-9.2235,-9.224,-9.2497,-9.2574,-9.2598,-9.2772,-9.2836,-9.2976,-9.2988,-9.3182,-9.3225,-9.3245,-9.341,-9.3405,-9.359,-9.3582,-9.3867,-9.3831,-9.3838,-9.3831,-9.4022,-9.4005,-9.4639,-9.4722,-9.4159,-9.4164,-9.4168,0,-9.182,-9.2037,-9.2032,-9.2181,-9.242,-9.2389,-9.2626,-9.266,-9.2734,-9.2886,-9.2807,-9.2951,-9.2921,-9.3064,-9.3053,-9.3284,-9.3318,-9.3326,-9.3321,-9.3335,-9.3334,-9.3387,-9.3362,-9.3299,-9.3296,-9.3293,-9.329,0,-9.139,-9.1639,-9.188,-9.1938,-9.204,-9.2153,-9.2201,-9.2282,-9.2374,-9.2491,-9.255,-9.2688,-9.2764,-9.2871,-9.2856,-9.2726,-9.3137,-9.2956,-9.3145,-9.3147,-9.3238,-9.3232,-9.3794,-9.3286,-9.3285,-9.3284,-9.3283,0,-9.1055,-9.1177,-9.1524,-9.1607,-9.1674,-9.1831,-9.1966,-9.21,-9.2191,-9.2194,-9.2286,-9.2232,-9.2432,-9.2252,-9.2528,-9.2364,-9.2443,-9.2468,-9.2481,-9.25,-9.23,-9.262,-9.3154,-9.3211,-9.2516,-9.251,-9.2504,0,-9.0562,-9.0913,-9.0888,-9.1218,-9.1379,-9.1281,-9.1454,-9.1537,-9.1556,-9.1694,-9.1712,-9.1869,-9.1734,-9.1782,-9.1919,-9.1945,-9.2157,-9.1915,-9.2114,-9.2121,-9.2096,-9.2587,-9.2669,-9.3038,-9.2422,-9.2431,-9.2437,0,-9.018,-9.0303,-9.0363,-9.0428,-9.0533,-9.0666,-9.0866,-9.1014,-9.1108,-9.1208,-9.1375,-9.1593,-9.1501,-9.158,-9.1549,-9.1692,-9.2012,-9.1573,-9.1575,-9.1654,-9.2379,-9.2457,-9.2519,-9.196,-9.197,-9.1978,-9.2372,0,-8.9678,-8.9853,-9.0016,-9.0159,-9.026,-9.0465,-9.046,-9.0567,-9.0529,-9.0543,-9.0785,-9.0849,-9.0999,-9.1066,-9.1028,-9.1356,-9.1301,-9.1199,-9.1025,-9.1346,-9.1476,-9.1529,-9.0832,-9.0827,-9.0823,-9.0819,0,0,-8.9206,-8.9456,-8.9421,-8.9613,-8.9697,-8.959,-8.981,-8.9878,-9.0019,-9.0079,-8.9981,-9.0299,-9.0355,-9.065,-9.075,-9.0809,-9.0867,-9.0754,-9.1193,-9.1235,-9.1273,-9.1412,-9.1467,-9.0811,-9.081,-9.0808,-9.0807,0,-8.9022,-8.9084,-8.9301,-8.9371,-8.9473,-8.9477,-8.953,-8.9611,-8.963,-8.9866,-8.9773,-8.9917,-9.0171,-9.0243,-9.0313,-9.0719,-9.064,-9.0764,-9.0986,-9.1149,-9.1197,-9.1238,-9.1385,-9.1438,-9.0796,-9.0797,-9.0797,0,-8.8646,-8.8707,-8.8811,-8.8996,-8.906,-8.9227,-8.9044,-8.9227,-8.935,-8.922,-8.9457,-8.9491,-8.9586,-8.9865,-8.9989,-8.9904,-9.0434,-9.0263,-9.0291,-9.0305,-9.0462,-9.0519,-9.057,-8.99,-8.9896,-8.9894,0,0,-8.8487,-8.8648,-8.8703,-8.8955,-8.9003,-8.9012,-8.9099,-8.9069,-8.9157,-8.9193,-8.9236,-8.9324,-8.9471,-8.9568,-8.9705,-9.0011,-9.0029,-9.0153,-9.0196,-9.023,-9.0263,-9.0429,-9.0486,-8.9882,-8.9882,-8.9881,0,0,-8.841,-8.8485,-8.843,-8.8722,-8.8811,-8.888,-8.9034,-8.8967,-8.909,-8.9066,-8.9021,-8.9043,-8.9302,-8.9339,-8.9185,-8.9642,-8.947,-8.9506,-8.9609,-8.9663,-8.9704,-8.969,-8.9004,0,0,0,0,0,-8.8218,-8.8475,-8.8425,-8.8473,-8.8705,-8.8908,-8.8937,-8.8908,-8.8787,-8.891,-8.8934,-8.8843,-8.9247,-8.9109,-8.9156,-8.9329,-8.9732,-8.9759,-8.9784,-8.9988,-9.0044,-9.0091,0,0,0,0,0,0,-8.8237,-8.8296,-8.8418,-8.8499,-8.8551,-8.8899,-8.8688,-8.8686,-8.8773,-8.8753,-8.8841,-8.8846,-8.8823,-8.9083,-8.9126,-8.9291,-8.8989,-8.9742,-8.9765,-8.9785,-9.0007,-9.0053,-9.0092,0,0,0,0,0,-8.8252,-8.8299,-8.8678,-8.8495,-8.854,-8.8563,-8.8677,-8.8675,-8.8741,-8.878,-8.8781,-8.8711,-8.8828,-8.8862,-8.9108,-8.9272,-8.8959,-8.8975,-8.9757,-8.9775,-8.9791,-9.003,0,0,0,0,0,0,-8.8262,-8.8297,-8.8686,-8.8699,-8.8396,-8.8542,-8.8564,-8.8665,-8.8762,-8.8766,-8.8646,-8.8629,-8.8836,-8.886,-8.8887,-8.9267,-8.8934,-8.8951,-8.8961,-8.9771,-8.9785,-8.9797,0,0,0,0,0,0,-8.8271,-8.8309,-8.8693,-8.8569,-8.8567,-8.8524,-8.8544,-8.8747,-8.8764,-8.8622,-8.8611,-8.8637,-8.8794,-8.8861,-8.8881,-8.9199,-8.8916,-8.8931,-8.8942,-8.8949,-8.9782,-8.9793,0,0,0,0,0,0,-8.8287,-8.8319,-8.8565,-8.8564,-8.8562,-8.8699,-8.8703,-8.8941,-8.866,-8.8619,-8.8634,-8.8622,-8.8797,-8.8817,-8.8877,-8.9188,-8.9196,-8.8916,-8.8927,-8.8935,-8.894,0,0,0,0,0,0,0,-8.8299,-8.8093,-8.8613,-8.856,-8.8557,-8.8815,-8.8818,-8.8821,-8.8658,-8.8647,-8.8637,-8.8627,-8.8826,-8.8843,-8.8861,-8.9178,0,0,-8.8915,-8.8922,0,0,0,0,0,0,0,0,-8.8079,-8.8089,-8.8613,-8.8616,-8.8618,-8.8815,-8.8818,-8.8821,-8.8656,-8.8647,-8.8639,-8.8631,-8.883,-8.8844,-8.8859,0,0,0,0,0,0,0,0,0,0,0,0,0,0,0,-8.8613,-8.8616,0,-8.8815,-8.8818,-8.882,-8.8655,-8.8648,-8.8641,-8.8634,-8.8834,-8.8846,-8.8857,0,0,0,0,0,0,0,0,0,0,0,0,0,0,0,0,0,0,0,0,0,0,0,0,0,0,0,0,0,0,0,0,0,0,0,0,0,0,0,0,0,0,0,0,0,0,0,0,0,0,0,0,0,0,0,0,0,0,0,0,0,0,0,0,0,0,0,0,0]}]]]